TimeEDT,TemperatureF,Dew PointF,Humidity,Sea Level PressureIn,VisibilityMPH,Wind Direction,Wind SpeedMPH,Gust SpeedMPH,PrecipitationIn,Events,Conditions,WindDirDegrees,DateUTC
12:56 AM,78.1,73.0,84,30.04,10.0,West,4.6,-,N/A,,Mostly Cloudy,260,2013-08-24 04:56:00
1:56 AM,78.1,73.0,84,30.03,10.0,West,5.8,-,N/A,,Mostly Cloudy,260,2013-08-24 05:56:00
2:56 AM,77.0,73.0,88,30.02,10.0,WSW,5.8,-,N/A,,Mostly Cloudy,250,2013-08-24 06:56:00
3:56 AM,77.0,73.0,88,30.04,10.0,West,4.6,-,N/A,,Mostly Cloudy,280,2013-08-24 07:56:00
4:56 AM,77.0,73.0,88,30.05,10.0,WNW,5.8,-,N/A,,Overcast,300,2013-08-24 08:56:00
5:56 AM,75.9,72.0,87,30.06,10.0,WNW,4.6,-,N/A,,Mostly Cloudy,300,2013-08-24 09:56:00
6:56 AM,75.9,73.0,91,30.08,10.0,NNW,8.1,-,0.00,Rain,Light Rain,340,2013-08-24 10:56:00
7:02 AM,75.2,71.6,89,30.09,10.0,North,6.9,-,0.00,Rain-Thunderstorm,Light Thunderstorms and Rain,360,2013-08-24 11:02:00
7:20 AM,75.2,71.6,89,30.09,10.0,North,9.2,-,0.00,,Mostly Cloudy,10,2013-08-24 11:20:00
7:56 AM,75.0,72.0,90,30.10,10.0,North,9.2,-,0.00,Rain,Light Rain,10,2013-08-24 11:56:00
8:37 AM,75.2,71.6,89,30.12,10.0,NE,9.2,-,0.00,,Overcast,40,2013-08-24 12:37:00
8:56 AM,75.0,70.0,84,30.13,10.0,NNE,9.2,-,0.00,,Overcast,20,2013-08-24 12:56:00
9:43 AM,75.2,69.8,83,30.15,10.0,NE,9.2,-,0.00,,Overcast,40,2013-08-24 13:43:00
9:56 AM,75.0,70.0,84,30.15,10.0,NE,9.2,-,0.00,,Overcast,40,2013-08-24 13:56:00
10:56 AM,77.0,70.0,79,30.17,10.0,NE,11.5,-,N/A,,Overcast,50,2013-08-24 14:56:00
11:56 AM,77.0,70.0,79,30.17,10.0,ENE,9.2,-,N/A,,Overcast,70,2013-08-24 15:56:00
12:46 PM,77.0,69.8,78,30.18,10.0,North,8.1,-,N/A,,Mostly Cloudy,10,2013-08-24 16:46:00
12:56 PM,80.1,71.1,74,30.18,10.0,NNE,5.8,-,N/A,,Mostly Cloudy,30,2013-08-24 16:56:00
1:56 PM,82.9,69.1,63,30.17,10.0,ENE,9.2,-,N/A,,Scattered Clouds,70,2013-08-24 17:56:00
2:56 PM,84.0,69.1,61,30.16,10.0,NE,9.2,-,N/A,,Mostly Cloudy,40,2013-08-24 18:56:00
3:56 PM,84.0,70.0,63,30.15,10.0,NE,4.6,-,N/A,,Mostly Cloudy,50,2013-08-24 19:56:00
4:56 PM,82.9,69.1,63,30.15,10.0,NNE,4.6,-,N/A,,Scattered Clouds,30,2013-08-24 20:56:00
5:56 PM,82.0,69.1,65,30.15,10.0,ENE,10.4,-,N/A,,Mostly Cloudy,60,2013-08-24 21:56:00
6:56 PM,79.0,69.1,72,30.15,10.0,ENE,9.2,-,N/A,,Scattered Clouds,60,2013-08-24 22:56:00
7:56 PM,77.0,68.0,74,30.17,10.0,NE,5.8,-,N/A,,Scattered Clouds,40,2013-08-24 23:56:00
8:56 PM,77.0,66.9,71,30.19,10.0,NE,8.1,-,N/A,,Mostly Cloudy,50,2013-08-25 00:56:00
9:56 PM,75.0,68.0,79,30.20,10.0,NNE,4.6,-,N/A,,Mostly Cloudy,30,2013-08-25 01:56:00
10:56 PM,73.9,69.1,85,30.21,10.0,NNE,4.6,-,N/A,,Partly Cloudy,20,2013-08-25 02:56:00
11:56 PM,73.0,66.9,81,30.22,10.0,NE,6.9,-,N/A,,Clear,40,2013-08-25 03:56:00